Time,TemperatureF,DewpointF,PressureIn,WindDirection,WindDirectionDegrees,WindSpeedMPH,WindSpeedGustMPH,Humidity,HourlyPrecipIn,Conditions,Clouds,dailyrainin,SoftwareType,DateUTC
2013-01-20 00:04:00,67.0,-99.9,30.15,ENE,71,6.0,8.0,-999,-99.99,,,-99.99,,2013-01-20 05:04:00,
2013-01-20 00:12:00,67.0,-99.9,30.14,ENE,75,5.0,7.0,-999,-99.99,,,-99.99,,2013-01-20 05:12:00,
2013-01-20 00:23:00,67.0,-99.9,30.14,ENE,70,5.0,7.0,-999,-99.99,,,-99.99,,2013-01-20 05:23:00,
2013-01-20 00:33:00,67.0,-99.9,30.14,ENE,66,6.0,8.0,-999,-99.99,,,-99.99,,2013-01-20 05:33:00,
2013-01-20 00:43:00,67.0,-99.9,30.14,ENE,60,6.0,8.0,-999,-99.99,,,-99.99,,2013-01-20 05:43:00,
2013-01-20 00:53:00,67.0,-99.9,30.14,NE,43,4.0,7.0,-999,-99.99,,,-99.99,,2013-01-20 05:53:00,
2013-01-20 01:02:00,67.0,-99.9,30.14,ENE,68,4.0,7.0,-999,-99.99,,,-99.99,,2013-01-20 06:02:00,
2013-01-20 01:12:00,66.0,-99.9,30.13,NE,49,4.0,8.0,-999,-99.99,,,-99.99,,2013-01-20 06:12:00,
2013-01-20 01:22:00,66.0,-99.9,30.13,ENE,63,5.0,8.0,-999,-99.99,,,-99.99,,2013-01-20 06:22:00,
2013-01-20 01:34:00,66.0,-99.9,30.13,NNE,33,4.0,6.0,-999,-99.99,,,-99.99,,2013-01-20 06:34:00,
2013-01-20 01:43:00,66.0,-99.9,30.13,ENE,62,3.0,5.0,-999,-99.99,,,-99.99,,2013-01-20 06:43:00,
2013-01-20 01:53:00,66.0,-99.9,30.13,NE,53,2.0,4.0,-999,-99.99,,,-99.99,,2013-01-20 06:53:00,
2013-01-20 02:02:00,66.0,-99.9,30.13,NE,46,4.0,7.0,-999,-99.99,,,-99.99,,2013-01-20 07:02:00,
2013-01-20 02:12:00,66.0,-99.9,30.12,NE,56,4.0,6.0,-999,-99.99,,,-99.99,,2013-01-20 07:12:00,
2013-01-20 02:22:00,66.0,-99.9,30.12,ENE,67,5.0,8.0,-999,-99.99,,,-99.99,,2013-01-20 07:22:00,
2013-01-20 02:32:00,66.0,-99.9,30.11,ENE,72,4.0,7.0,-999,-99.99,,,-99.99,,2013-01-20 07:32:00,
2013-01-20 02:43:00,66.0,-99.9,30.12,NE,53,4.0,6.0,-999,-99.99,,,-99.99,,2013-01-20 07:43:00,
2013-01-20 02:52:00,66.0,-99.9,30.12,NNW,348,2.0,5.0,-999,-99.99,,,-99.99,,2013-01-20 07:52:00,
2013-01-20 03:02:00,65.0,-99.9,30.12,ENE,62,4.0,6.0,-999,-99.99,,,-99.99,,2013-01-20 08:02:00,
2013-01-20 03:12:00,65.0,-99.9,30.12,NE,36,2.0,4.0,-999,-99.99,,,-99.99,,2013-01-20 08:12:00,
2013-01-20 03:22:00,65.0,-99.9,30.12,East,87,3.0,5.0,-999,-99.99,,,-99.99,,2013-01-20 08:22:00,
2013-01-20 03:32:00,65.0,-99.9,30.12,ENE,73,3.0,6.0,-999,-99.99,,,-99.99,,2013-01-20 08:32:00,
2013-01-20 03:42:00,65.0,-99.9,30.12,NE,53,6.0,7.0,-999,-99.99,,,-99.99,,2013-01-20 08:42:00,
2013-01-20 03:53:00,65.0,-99.9,30.13,NE,50,3.0,5.0,-999,-99.99,,,-99.99,,2013-01-20 08:53:00,
2013-01-20 04:02:00,65.0,-99.9,30.12,NNE,28,4.0,6.0,-999,-99.99,,,-99.99,,2013-01-20 09:02:00,
2013-01-20 04:12:00,65.0,-99.9,30.12,ENE,60,4.0,5.0,-999,-99.99,,,-99.99,,2013-01-20 09:12:00,
2013-01-20 04:22:00,65.0,-99.9,30.12,NE,46,3.0,6.0,-999,-99.99,,,-99.99,,2013-01-20 09:22:00,
2013-01-20 04:33:00,65.0,-99.9,30.12,NE,45,3.0,7.0,-999,-99.99,,,-99.99,,2013-01-20 09:33:00,
2013-01-20 04:43:00,65.0,-99.9,30.12,North,7,4.0,7.0,-999,-99.99,,,-99.99,,2013-01-20 09:43:00,
2013-01-20 04:53:00,65.0,-99.9,30.12,NNE,30,4.0,6.0,-999,-99.99,,,-99.99,,2013-01-20 09:53:00,
2013-01-20 05:03:00,65.0,-99.9,30.11,NE,52,6.0,9.0,-999,-99.99,,,-99.99,,2013-01-20 10:03:00,
2013-01-20 05:12:00,65.0,-99.9,30.12,NE,40,4.0,7.0,-999,-99.99,,,-99.99,,2013-01-20 10:12:00,
2013-01-20 05:23:00,65.0,-99.9,30.12,ENE,59,5.0,8.0,-999,-99.99,,,-99.99,,2013-01-20 10:23:00,
2013-01-20 05:33:00,65.0,-99.9,30.12,ENE,60,4.0,7.0,-999,-99.99,,,-99.99,,2013-01-20 10:33:00,
2013-01-20 05:42:00,65.0,-99.9,30.12,NE,40,4.0,6.0,-999,-99.99,,,-99.99,,2013-01-20 10:42:00,
2013-01-20 05:53:00,65.0,-99.9,30.12,NE,55,4.0,7.0,-999,-99.99,,,-99.99,,2013-01-20 10:53:00,
2013-01-20 06:03:00,65.0,-99.9,30.12,NE,55,4.0,7.0,-999,-99.99,,,-99.99,,2013-01-20 11:03:00,
2013-01-20 06:12:00,65.0,-99.9,30.12,ENE,57,4.0,8.0,-999,-99.99,,,-99.99,,2013-01-20 11:12:00,
2013-01-20 06:22:00,65.0,-99.9,30.12,ENE,65,5.0,10.0,-999,-99.99,,,-99.99,,2013-01-20 11:22:00,
2013-01-20 06:33:00,65.0,-99.9,30.12,East,80,7.0,9.0,-999,-99.99,,,-99.99,,2013-01-20 11:33:00,
2013-01-20 06:43:00,64.0,-99.9,30.12,ENE,66,7.0,10.0,-999,-99.99,,,-99.99,,2013-01-20 11:43:00,
2013-01-20 06:54:00,64.0,-99.9,30.12,ENE,78,6.0,9.0,-999,-99.99,,,-99.99,,2013-01-20 11:54:00,
2013-01-20 07:03:00,64.0,-99.9,30.12,ENE,78,5.0,9.0,-999,-99.99,,,-99.99,,2013-01-20 12:03:00,
2013-01-20 07:13:00,64.0,-99.9,30.13,ENE,60,7.0,10.0,-999,-99.99,,,-99.99,,2013-01-20 12:13:00,
2013-01-20 07:23:00,64.0,-99.9,30.13,NE,55,3.0,8.0,-999,-99.99,,,-99.99,,2013-01-20 12:23:00,
2013-01-20 07:34:00,64.0,-99.9,30.14,NE,54,3.0,5.0,-999,-99.99,,,-99.99,,2013-01-20 12:34:00,
2013-01-20 07:43:00,65.0,-99.9,30.15,NNE,28,3.0,4.0,-999,-99.99,,,-99.99,,2013-01-20 12:43:00,
2013-01-20 07:53:00,65.0,-99.9,30.16,North,9,4.0,6.0,-999,-99.99,,,-99.99,,2013-01-20 12:53:00,
2013-01-20 08:03:00,65.0,-99.9,30.16,NNE,14,4.0,6.0,-999,-99.99,,,-99.99,,2013-01-20 13:03:00,
2013-01-20 08:12:00,65.0,-99.9,30.16,NE,36,3.0,6.0,-999,-99.99,,,-99.99,,2013-01-20 13:12:00,
2013-01-20 08:23:00,65.0,-99.9,30.16,ENE,66,4.0,6.0,-999,-99.99,,,-99.99,,2013-01-20 13:23:00,
2013-01-20 08:33:00,65.0,-99.9,30.16,NE,55,3.0,4.0,-999,-99.99,,,-99.99,,2013-01-20 13:33:00,
2013-01-20 08:43:00,65.0,-99.9,30.16,ENE,60,4.0,7.0,-999,-99.99,,,-99.99,,2013-01-20 13:43:00,
2013-01-20 08:53:00,65.0,-99.9,30.16,ENE,57,3.0,6.0,-999,-99.99,,,-99.99,,2013-01-20 13:53:00,
2013-01-20 09:03:00,65.0,-99.9,30.17,NE,38,3.0,5.0,-999,-99.99,,,-99.99,,2013-01-20 14:03:00,
2013-01-20 09:12:00,66.0,-99.9,30.17,ENE,59,3.0,4.0,-999,-99.99,,,-99.99,,2013-01-20 14:12:00,
2013-01-20 09:23:00,66.0,-99.9,30.18,North,8,4.0,6.0,-999,-99.99,,,-99.99,,2013-01-20 14:23:00,
2013-01-20 09:33:00,66.0,-99.9,30.17,ENE,57,4.0,6.0,-999,-99.99,,,-99.99,,2013-01-20 14:33:00,
2013-01-20 09:43:00,66.0,-99.9,30.18,NE,48,2.0,4.0,-999,-99.99,,,-99.99,,2013-01-20 14:43:00,
2013-01-20 09:53:00,67.0,-99.9,30.18,NNE,24,3.0,5.0,-999,-99.99,,,-99.99,,2013-01-20 14:53:00,
2013-01-20 10:04:00,67.0,-99.9,30.18,NE,40,3.0,4.0,-999,-99.99,,,-99.99,,2013-01-20 15:04:00,
2013-01-20 10:13:00,67.0,-99.9,30.18,North,353,3.0,6.0,-999,-99.99,,,-99.99,,2013-01-20 15:13:00,
2013-01-20 10:23:00,67.0,-99.9,30.18,North,356,6.0,7.0,-999,-99.99,,,-99.99,,2013-01-20 15:23:00,
2013-01-20 10:33:00,67.0,-99.9,30.19,North,349,6.0,8.0,-999,-99.99,,,-99.99,,2013-01-20 15:33:00,
2013-01-20 10:43:00,68.0,-99.9,30.18,ENE,59,3.0,5.0,-999,-99.99,,,-99.99,,2013-01-20 15:43:00,
2013-01-20 10:53:00,69.0,-99.9,30.18,North,7,3.0,6.0,-999,-99.99,,,-99.99,,2013-01-20 15:53:00,
2013-01-20 11:03:00,69.0,-99.9,30.17,ENE,66,2.0,4.0,-999,-99.99,,,-99.99,,2013-01-20 16:03:00,
2013-01-20 11:12:00,70.0,-99.9,30.16,ENE,73,4.0,5.0,-999,-99.99,,,-99.99,,2013-01-20 16:12:00,
2013-01-20 11:23:00,70.0,-99.9,30.16,ENE,65,4.0,6.0,-999,-99.99,,,-99.99,,2013-01-20 16:23:00,
2013-01-20 11:33:00,70.0,-99.9,30.16,ENE,71,4.0,6.0,-999,-99.99,,,-99.99,,2013-01-20 16:33:00,
2013-01-20 11:43:00,71.0,-99.9,30.15,NNE,33,2.0,5.0,-999,-99.99,,,-99.99,,2013-01-20 16:43:00,
2013-01-20 11:53:00,73.0,-99.9,30.15,WSW,250,1.0,2.0,-999,-99.99,,,-99.99,,2013-01-20 16:53:00,
2013-01-20 12:03:00,73.0,-99.9,30.15,West,262,4.0,5.0,-999,-99.99,,,-99.99,,2013-01-20 17:03:00,
2013-01-20 12:13:00,72.0,-99.9,30.14,West,262,4.0,6.0,-999,-99.99,,,-99.99,,2013-01-20 17:13:00,
2013-01-20 12:23:00,71.0,-99.9,30.14,West,264,5.0,8.0,-999,-99.99,,,-99.99,,2013-01-20 17:23:00,
2013-01-20 12:33:00,69.0,-99.9,30.13,WNW,300,4.0,7.0,-999,-99.99,,,-99.99,,2013-01-20 17:33:00,
2013-01-20 12:43:00,70.0,-99.9,30.12,NW,313,5.0,6.0,-999,-99.99,,,-99.99,,2013-01-20 17:43:00,
2013-01-20 12:53:00,70.0,-99.9,30.11,NW,306,6.0,7.0,-999,-99.99,,,-99.99,,2013-01-20 17:53:00,
2013-01-20 13:03:00,70.0,-99.9,30.11,NW,305,7.0,8.0,-999,-99.99,,,-99.99,,2013-01-20 18:03:00,
2013-01-20 13:13:00,70.0,-99.9,30.11,NW,313,9.0,10.0,-999,-99.99,,,-99.99,,2013-01-20 18:13:00,
2013-01-20 13:24:00,70.0,-99.9,30.10,NW,314,9.0,10.0,-999,-99.99,,,-99.99,,2013-01-20 18:24:00,
2013-01-20 13:33:00,70.0,-99.9,30.09,NW,307,7.0,8.0,-999,-99.99,,,-99.99,,2013-01-20 18:33:00,
2013-01-20 13:43:00,70.0,-99.9,30.09,WNW,297,9.0,10.0,-999,-99.99,,,-99.99,,2013-01-20 18:43:00,
2013-01-20 13:53:00,70.0,-99.9,30.09,WNW,296,8.0,9.0,-999,-99.99,,,-99.99,,2013-01-20 18:53:00,
2013-01-20 14:03:00,71.0,-99.9,30.08,NW,305,8.0,9.0,-999,-99.99,,,-99.99,,2013-01-20 19:03:00,
2013-01-20 14:12:00,71.0,-99.9,30.08,WNW,298,8.0,10.0,-999,-99.99,,,-99.99,,2013-01-20 19:12:00,
2013-01-20 14:23:00,71.0,-99.9,30.08,WNW,287,8.0,9.0,-999,-99.99,,,-99.99,,2013-01-20 19:23:00,
2013-01-20 14:33:00,72.0,-99.9,30.08,West,270,6.0,9.0,-999,-99.99,,,-99.99,,2013-01-20 19:33:00,
2013-01-20 14:43:00,72.0,-99.9,30.07,West,277,6.0,9.0,-999,-99.99,,,-99.99,,2013-01-20 19:43:00,
2013-01-20 14:53:00,71.0,-99.9,30.06,WNW,284,8.0,9.0,-999,-99.99,,,-99.99,,2013-01-20 19:53:00,
2013-01-20 15:03:00,71.0,-99.9,30.06,WNW,289,8.0,10.0,-999,-99.99,,,-99.99,,2013-01-20 20:03:00,
2013-01-20 15:12:00,71.0,-99.9,30.06,WNW,289,9.0,10.0,-999,-99.99,,,-99.99,,2013-01-20 20:12:00,
2013-01-20 15:23:00,71.0,-99.9,30.06,WNW,292,9.0,11.0,-999,-99.99,,,-99.99,,2013-01-20 20:23:00,
2013-01-20 15:33:00,71.0,-99.9,30.06,WNW,287,9.0,11.0,-999,-99.99,,,-99.99,,2013-01-20 20:33:00,
2013-01-20 15:43:00,71.0,-99.9,30.06,WNW,282,10.0,12.0,-999,-99.99,,,-99.99,,2013-01-20 20:43:00,
2013-01-20 15:54:00,71.0,-99.9,30.06,WNW,290,11.0,13.0,-999,-99.99,,,-99.99,,2013-01-20 20:54:00,
2013-01-20 16:04:00,71.0,-99.9,30.06,WNW,294,11.0,12.0,-999,-99.99,,,-99.99,,2013-01-20 21:04:00,
2013-01-20 16:13:00,71.0,-99.9,30.06,WNW,303,11.0,15.0,-999,-99.99,,,-99.99,,2013-01-20 21:13:00,
2013-01-20 16:23:00,70.0,-99.9,30.06,NW,304,11.0,13.0,-999,-99.99,,,-99.99,,2013-01-20 21:23:00,
2013-01-20 16:34:00,71.0,-99.9,30.06,NW,304,12.0,14.0,-999,-99.99,,,-99.99,,2013-01-20 21:34:00,
2013-01-20 16:43:00,70.0,-99.9,30.06,WNW,298,11.0,15.0,-999,-99.99,,,-99.99,,2013-01-20 21:43:00,
2013-01-20 16:54:00,70.0,-99.9,30.06,WNW,303,11.0,13.0,-999,-99.99,,,-99.99,,2013-01-20 21:54:00,
2013-01-20 17:03:00,70.0,-99.9,30.06,NW,313,9.0,10.0,-999,-99.99,,,-99.99,,2013-01-20 22:03:00,
2013-01-20 17:13:00,70.0,-99.9,30.06,NW,316,8.0,10.0,-999,-99.99,,,-99.99,,2013-01-20 22:13:00,
2013-01-20 17:23:00,70.0,-99.9,30.06,NW,312,8.0,10.0,-999,-99.99,,,-99.99,,2013-01-20 22:23:00,
2013-01-20 17:34:00,69.0,-99.9,30.07,NW,317,10.0,11.0,-999,-99.99,,,-99.99,,2013-01-20 22:34:00,
2013-01-20 17:43:00,69.0,-99.9,30.07,NW,323,9.0,11.0,-999,-99.99,,,-99.99,,2013-01-20 22:43:00,
2013-01-20 17:53:00,70.0,-99.9,30.07,NNW,327,10.0,11.0,-999,-99.99,,,-99.99,,2013-01-20 22:53:00,
2013-01-20 18:03:00,69.0,-99.9,30.07,NNW,327,9.0,11.0,-999,-99.99,,,-99.99,,2013-01-20 23:03:00,
2013-01-20 18:13:00,69.0,-99.9,30.07,NNW,329,8.0,9.0,-999,-99.99,,,-99.99,,2013-01-20 23:13:00,
2013-01-20 18:23:00,70.0,-99.9,30.08,NNW,328,8.0,9.0,-999,-99.99,,,-99.99,,2013-01-20 23:23:00,
2013-01-20 18:33:00,69.0,-99.9,30.07,NW,324,8.0,9.0,-999,-99.99,,,-99.99,,2013-01-20 23:33:00,
2013-01-20 18:43:00,69.0,-99.9,30.07,NW,324,8.0,9.0,-999,-99.99,,,-99.99,,2013-01-20 23:43:00,
2013-01-20 18:53:00,70.0,-99.9,30.07,NW,321,7.0,9.0,-999,-99.99,,,-99.99,,2013-01-20 23:53:00,
2013-01-20 19:03:00,70.0,-99.9,30.07,NNW,328,9.0,9.0,-999,-99.99,,,-99.99,,2013-01-21 00:03:00,
2013-01-20 19:13:00,70.0,-99.9,30.08,NNW,331,9.0,10.0,-999,-99.99,,,-99.99,,2013-01-21 00:13:00,
2013-01-20 19:23:00,69.0,-99.9,30.07,NNW,334,9.0,10.0,-999,-99.99,,,-99.99,,2013-01-21 00:23:00,
2013-01-20 19:33:00,70.0,-99.9,30.08,NNW,343,9.0,11.0,-999,-99.99,,,-99.99,,2013-01-21 00:33:00,
2013-01-20 19:43:00,70.0,-99.9,30.08,NNW,338,10.0,11.0,-999,-99.99,,,-99.99,,2013-01-21 00:43:00,
2013-01-20 19:54:00,70.0,-99.9,30.08,NNW,341,11.0,13.0,-999,-99.99,,,-99.99,,2013-01-21 00:54:00,
2013-01-20 20:03:00,70.0,-99.9,30.08,NNW,343,9.0,11.0,-999,-99.99,,,-99.99,,2013-01-21 01:03:00,
2013-01-20 20:13:00,69.0,-99.9,30.08,North,352,10.0,11.0,-999,-99.99,,,-99.99,,2013-01-21 01:13:00,
2013-01-20 20:23:00,70.0,-99.9,30.08,NNW,343,11.0,12.0,-999,-99.99,,,-99.99,,2013-01-21 01:23:00,
2013-01-20 20:33:00,69.0,-99.9,30.08,NNW,341,10.0,12.0,-999,-99.99,,,-99.99,,2013-01-21 01:33:00,
2013-01-20 20:44:00,69.0,-99.9,30.08,NNW,344,9.0,11.0,-999,-99.99,,,-99.99,,2013-01-21 01:44:00,
2013-01-20 20:53:00,69.0,-99.9,30.09,NNW,342,9.0,10.0,-999,-99.99,,,-99.99,,2013-01-21 01:53:00,
2013-01-20 21:03:00,69.0,-99.9,30.09,NNW,337,9.0,10.0,-999,-99.99,,,-99.99,,2013-01-21 02:03:00,
2013-01-20 21:13:00,69.0,-99.9,30.09,NNW,338,8.0,9.0,-999,-99.99,,,-99.99,,2013-01-21 02:13:00,
2013-01-20 21:23:00,69.0,-99.9,30.09,NNW,342,8.0,10.0,-999,-99.99,,,-99.99,,2013-01-21 02:23:00,
2013-01-20 21:34:00,69.0,-99.9,30.09,NNW,344,8.0,9.0,-999,-99.99,,,-99.99,,2013-01-21 02:34:00,
2013-01-20 21:43:00,69.0,-99.9,30.09,NNW,344,8.0,9.0,-999,-99.99,,,-99.99,,2013-01-21 02:43:00,
2013-01-20 21:53:00,69.0,-99.9,30.09,North,352,7.0,8.0,-999,-99.99,,,-99.99,,2013-01-21 02:53:00,
2013-01-20 22:03:00,69.0,-99.9,30.09,North,10,6.0,7.0,-999,-99.99,,,-99.99,,2013-01-21 03:03:00,
2013-01-20 22:13:00,69.0,-99.9,30.09,NNE,18,4.0,6.0,-999,-99.99,,,-99.99,,2013-01-21 03:13:00,
2013-01-20 22:23:00,69.0,-99.9,30.10,NNE,20,3.0,5.0,-999,-99.99,,,-99.99,,2013-01-21 03:23:00,
2013-01-20 22:33:00,69.0,-99.9,30.10,NNE,13,3.0,5.0,-999,-99.99,,,-99.99,,2013-01-21 03:33:00,
2013-01-20 22:44:00,69.0,-99.9,30.10,NNE,20,3.0,5.0,-999,-99.99,,,-99.99,,2013-01-21 03:44:00,
2013-01-20 22:54:00,69.0,-99.9,30.10,NE,44,2.0,6.0,-999,-99.99,,,-99.99,,2013-01-21 03:54:00,
2013-01-20 23:03:00,69.0,-99.9,30.10,ENE,59,5.0,7.0,-999,-99.99,,,-99.99,,2013-01-21 04:03:00,
2013-01-20 23:13:00,69.0,-99.9,30.09,NE,56,2.0,4.0,-999,-99.99,,,-99.99,,2013-01-21 04:13:00,
2013-01-20 23:23:00,69.0,-99.9,30.10,NNE,27,2.0,4.0,-999,-99.99,,,-99.99,,2013-01-21 04:23:00,
2013-01-20 23:33:00,69.0,-99.9,30.10,NE,52,5.0,6.0,-999,-99.99,,,-99.99,,2013-01-21 04:33:00,
2013-01-20 23:43:00,69.0,-99.9,30.09,ENE,65,3.0,6.0,-999,-99.99,,,-99.99,,2013-01-21 04:43:00,
2013-01-20 23:53:00,69.0,-99.9,30.09,ENE,65,5.0,8.0,-999,-99.99,,,-99.99,,2013-01-21 04:53:00,